sat.trackr.live / text

‹ back to catalog

STARLINK-36534

NORAD 67496 · 2026-012D

PAYLOAD ACTIVE UNKNOWN

§ Identity

Operator
Country
US
Launch date
2026-01-18
Launch site
AFETR
Launch vehicle
Mass (kg)
RCS (m²)

Purposes: comms

External: N2YO · Heavens-Above · Gunter

§ Orbital elements

Epoch: 2026-09-19T10:55:42.843936Z

Period
94.27 min
Inclination
42.9991°
Eccentricity
0.0000788
Mean motion
15.27578482 rev/d
Perigee alt
482.5 km
Apogee alt
483.6 km
Semi-major
6,861.2 km
B*
3.3101e-4
RAAN
300.3107°
Arg perigee
235.6636°
Mean anomaly
124.4141°
Rev number
3,739

§ Raw data

STARLINK-365341 67496U 26012D   26262.45535699  .00008857  00000+0  33101-3 0  99952 67496  42.9991 300.3107 0000788 235.6636 124.4141 15.27578482 37394

JSON: /api/v1/satellites/67496 · /tle

For live sub-satellite position, see the globe view (requires WebGL).

§ Visibility from observer

Set your observer location to see the next 7 days of passes ≥ 10°. The values pass through the URL so the page stays shareable.

No JS? Fill the form by hand. The geolocation button needs JavaScript.